Location: Mohawk View
(42.7837°N, 73.7885°W)
Time: 08:00:40
(UTC+00:00)

SL-19 R/B - Pass Details

Date: 17 June 2021
Orbit: 796 x 1009 km, 99.4° (Epoch: 27 July)

Event Time Altitude Azimuth Distance (km) Brightness Sun altitude
Rises 07:25:09 0° 10° (N) 3,314 8.5 -15.5°
Reaches altitude 10° 07:27:30 10° 5° (N) 2,388 7.5 -15.2°
Maximum altitude 07:32:36 53° 290° (WNW) 999 4.5 -14.7°
Enters shadow 07:36:02 21° 221° (SW) 1,790 5.3 -14.3°
